This demonstration page uses our WeatherBlox Daily Observations layout. Learn more.

Left ArrowRight Arrow

41.55636, -103.73856

Hourly Observations for December 10, 2017

Temp ( °F °C ) Dew Point ( °F °C ) Humidity (%) Winds ( mph kmh ) Pressure ( in mb ) Visibility ( mi km ) Precip ( " mm )
12:53 am 00:53 Clear 31 -0.6 11 -11.7 43 43 WNW 13 20 30.35 1028 10 16 N/A
1:53 am 01:53 Clear 27 -2.8 11 -11.7 51 51 WNW 9 15 30.37 1028 10 16 N/A
2:53 am 02:53 Clear 27 -2.8 11 -11.7 51 51 WNW 12 19 30.37 1028 10 16 N/A
3:53 am 03:53 Clear 24 -4.4 11 -11.7 57 57 WNW 8 13 30.38 1029 10 16 N/A
4:53 am 04:53 Clear 25 -3.9 11 -11.7 55 55 WNW 9 15 30.40 1029 10 16 N/A
5:53 am 05:53 Clear 23 -5 10 -12.2 57 57 NW 8 13 30.42 1030 10 16 N/A
6:53 am 06:53 Clear 25 -3.9 11 -11.7 55 55 NW 9 15 30.43 1030 10 16 N/A
7:53 am 07:53 Sunny 27 -2.8 11 -11.7 51 51 WNW 6 9 30.44 1031 10 16 N/A
8:53 am 08:53 Sunny 35 1.7 12 -11.1 38 38 WNW 8 13 30.44 1031 10 16 N/A
9:53 am 09:53 Sunny 43 6.1 12 -11.1 28 28 W 12 19 30.42 1030 10 16 N/A
10:53 am 10:53 Sunny 51 10.6 11 -11.7 20 20 WNW 13 20 30.38 1029 10 16 N/A
11:53 am 11:53 Sunny 58 14.4 6 -14.4 12 12 WNW 17 28 30.33 1027 10 16 N/A
12:53 pm 12:53 Sunny 61 16.1 4 -15.6 10 10 WNW 14 22 30.29 1026 10 16 N/A
1:53 pm 13:53 Sunny 60 15.6 2 -16.7 9 9 WNW 14 22 30.29 1026 10 16 N/A
2:53 pm 14:53 Sunny 60 15.6 2 -16.7 9 9 WNW 9 15 30.27 1025 10 16 N/A
3:53 pm 15:53 Sunny 55 12.8 4 -15.6 12 12 W 10 17 30.28 1026 10 16 N/A
4:53 pm 16:53 Clear 48 8.9 6 -14.4 18 18 W 10 17 30.31 1026 10 16 N/A
5:53 pm 17:53 Clear 44 6.7 8 -13.3 23 23 W 10 17 30.32 1027 10 16 N/A
6:53 pm 18:53 Clear 35 1.7 8 -13.3 32 32 NW 8 13 30.35 1028 10 16 N/A
7:53 pm 19:53 Clear 32 undefined 9 -12.8 38 38 NNW 6 9 30.36 1028 10 16 N/A
8:53 pm 20:53 Clear 36 2.2 9 -12.8 32 32 WNW 13 20 30.31 1026 10 16 N/A
9:53 pm 21:53 Clear 32 undefined 9 -12.8 38 38 NW 8 13 30.30 1026 10 16 N/A
10:53 pm 22:53 Clear 29 -1.7 9 -12.8 43 43 WNW 5 7 30.31 1026 10 16 N/A
11:53 pm 23:53 Clear 32 undefined 9 -12.8 38 38 WNW 9 15 30.28 1026 10 16 N/A

Powered by AerisWeather